This demonstration page uses our WeatherBlox Daily Observations layout. Learn more.

Left ArrowRight Arrow

Hourly Observations for August 5, 2021

Temp ( °F °C ) Dew Point ( °F °C ) Humidity (%) Winds ( mph kmh ) Pressure ( in mb ) Visibility ( mi km ) Precip ( " mm )
12:51 am 00:51 Clear 80 26.7 58 14.4 47 47 SE 5 7 29.82 1010 10 16 0.00 0.00
1:51 am 01:51 Clear 81 27.2 59 15 47 47 E 9 15 29.83 1010 10 16 0.00 0.00
3:51 am 03:51 Clear 78 25.6 60 15.6 54 54 SE 8 13 29.88 1012 10 16 0.00 0.00
4:51 am 04:51 Clear 76 24.4 62 16.7 62 62 ESE 7 11 29.89 1012 10 16 0.00 0.00
5:51 am 05:51 Sunny 76 24.4 62 16.7 62 62 E 13 20 29.91 1013 10 16 0.00 0.00
6:51 am 06:51 Sunny 82 27.8 59 15 46 46 E 13 20 29.91 1013 10 16 0.00 0.00
7:51 am 07:51 Sunny 85 29.4 57 13.9 39 39 ESE 10 17 29.93 1014 10 16 0.00 0.00
8:51 am 08:51 Sunny 84 28.9 63 17.2 49 49 SSW 5 7 29.94 1014 10 16 0.00 0.00
9:51 am 09:51 Sunny 88 31.1 60 15.6 39 39 VRB 6 9 29.93 1014 10 16 0.00 0.00
10:51 am 10:51 Sunny 93 33.9 59 15 32 32 VRB 6 9 29.91 1013 10 16 0.00 0.00
11:51 am 11:51 Sunny 93 33.9 55 12.8 28 28 S 8 13 29.90 1012 10 16 0.00 0.00
12:51 pm 12:51 Sunny 95 35 56 13.3 27 27 SE 8 13 29.87 1012 10 16 0.00 0.00
1:51 pm 13:51 Sunny 97 36.1 56 13.3 25 25 VRB 5 7 29.84 1011 10 16 0.00 0.00
2:51 pm 14:51 Sunny 98 36.7 54 12.2 23 23 SE 6 9 29.80 1009 10 16 0.00 0.00
3:51 pm 15:51 Sunny 101 38.3 55 12.8 22 22 N 9 15 29.78 1008 10 16 0.00 0.00
4:51 pm 16:51 Sunny 100 37.8 53 11.7 21 21 VRB 3 6 29.77 1008 10 16 0.00 0.00
5:51 pm 17:51 Sunny 100 37.8 52 11.1 20 20 Calm 29.76 1008 10 16 0.00 0.00
6:51 pm 18:51 Sunny 98 36.7 53 11.7 22 22 Calm 29.75 1008 10 16 0.00 0.00
7:51 pm 19:51 Clear 90 32.2 58 14.4 34 34 Calm 29.76 1008 10 16 0.00 0.00
8:51 pm 20:51 Clear 87 30.6 58 14.4 37 37 Calm 29.80 1009 10 16 0.00 0.00
9:51 pm 21:51 Clear 85 29.4 58 14.4 40 40 ESE 6 9 29.82 1010 10 16 0.00 0.00
10:51 pm 22:51 Clear 86 30 57 13.9 37 37 E 3 6 29.81 1010 10 16 0.00 0.00
11:51 pm 23:51 Partly Cloudy 84 28.9 58 14.4 41 41 E 5 7 29.82 1010 10 16 0.00 0.00

Powered by AerisWeather